Tracking 17856 objects as of 28-September-2016
HD Live streaming from Space Station
objects crossing your sky now

COSMOS 1018

Track COSMOS 1018 now!
10-day predictions
COSMOS 1018 is classified as:


NORAD ID: 10935
Int'l Code: 1978-056F
Perigee: 1,472.2 km
Apogee: 1,472.2 km
Inclination: 74.0 °
Period: 115.2 minutes
Semi major axis: 7843 km
RCS: 0.7262 m2 (medium)
Launch date: June 7, 1978
Source: Commonwealth of Independent States (former USSR) (CIS)
Launch site: PLESETSK MISSILE AND SPACE COMPLEX (PKMTR)
Your satellite tracking list
Your tracking list is empty





NASA's NSSDC Master Catalog

Two Line Element Set (TLE):
1 10935U 78056F   16270.11866596 -.00000019  00000-0 -21779-4 0  9994
2 10935  74.0303   8.0282 0029526 357.7137  69.5519 12.49858844747831
Source of the keplerian elements: AFSPC

N2YO: 448